"Pseudo-MPEC" for P21vu2k

Created 2022 Aug 20 11:23:01 UT using Find_Orb

Click here for an explanation of pseudo-MPECs

 
 Astrometry: 
     P21vu2k* C2022 07 268c99``,FGAstrometry9cYL:6DLtu@K@-=,)YDredacted;[m#s0F52
     P21vu2k  C2022 07 26=fKWsq$f5^8ON7!2uMR\Dclick9e#]hereJ`Mfor5#:`5g19-FQFF52
     P21vu2k  C2022 07 26OY7P[I%cVaaI'e,'iF/X$#9jP,QexplanationP8Qqh0-l6JQ1KXF52
     P21vu2k ^C2022 07 27.52724423 10 16.686-27 54 20.81   ~7RDb 20.66GVNEOCP568
     P21vu2k ^C2022 07 27.52822123 10 16.762-27 54 21.40   ~7RDb 20.61GVNEOCP568
     P21vu2k ^C2022 07 27.52920023 10 16.839-27 54 21.96   ~7RDb 20.63GVNEOCP568

Station data:
(568) Mauna Kea  (N19.826114 W155.472200)  US/Hawaii.  Observers R.
   Wainscoat, R. Weryk. 3.6-m Canada-France-Hawaii Telescope + CCD2.24-m
   University of Hawaii reflector.
(F52) Pan-STARRS 2, Haleakala  (N20.707382 W156.255910)  US/Hawaii.
   Observers J. Bulger, T. Dukes, T. Lowe, A. Schultz, M. Willman. Measurers
   K. Chambers, S. Chastel, T. de Boer, L. Denneau, J. Fairlamb, H.
   Flewelling, M. Huber, C.-C. Lin, E. Magnier, Y. Ramanjooloo, R. Wainscoat,
   R. Weryk. 1.8-m Ritchey-Chrétien + CCD.

Orbital elements:  P21vu2k
   Perihelion 2022 Jul 24.91053 +/- 43.1 TT = 21:51:09 (JD 2459785.41053)
Epoch 2022 Jul 27.0 TT = JDT 2459787.5   Earth MOID: 0.4256   Ma: 0.0650
M   0.46510877 +/- 19               (J2000 ecliptic)          AutoNEOCP
n   0.22259632 +/- 0.209            Peri.  230.80228 +/- 90
a   2.69643974 +/- 1.68             Node    81.77523 +/- 35
e   0.4736736 +/- 0.23              Incl.    8.57561 +/- 2.3
P   4.43                   H 20.5   G  0.15   U 11.7  SR
q 1.41920740 +/- 0.352    Q 3.97367209 +/- 45.6
From 6 observations 2022 July 26-27 (23.1 hr); mean residual 0".03
Residuals in arcseconds: 
220726 F52  .05-  .02-    220726 F52  .03+  .05+    220727 568  .00   .01-    
220726 F52  .02+  .04-    220727 568  .01-  .00     220727 568  .02+  .01+    

Ephemerides (geocentric):
Date (UTC) HH   RA             Dec           delta  r     elong  mag " sig PA
---- --------  ------------   ------------  ------ ------ -----  --- --------
2022 08 20 11  23 29 55.904   -31 01 37.48  .47035 1.4434 151.7 20.7 599'  17
2022 08 20 12  23 29 56.508   -31 01 48.45  .47040 1.4434 151.7 20.7 606'  17
2022 08 20 13  23 29 57.108   -31 01 59.38  .47044 1.4435 151.7 20.7 613'  17
2022 08 20 14  23 29 57.703   -31 02 10.27  .47049 1.4436 151.8 20.7 620'  17
2022 08 20 15  23 29 58.294   -31 02 21.11  .47054 1.4437 151.8 20.7 627'  16
2022 08 20 16  23 29 58.880   -31 02 31.91  .47059 1.4437 151.8 20.7 634'  16
2022 08 20 17  23 29 59.462   -31 02 42.67  .47064 1.4438 151.8 20.7 641'  16
2022 08 20 18  23 30 00.039   -31 02 53.39  .47069 1.4439 151.8 20.7 649'  16
2022 08 20 19  23 30 00.612   -31 03 04.07  .47074 1.4440 151.8 20.7 656'  15
2022 08 20 20  23 30 01.181   -31 03 14.70  .47079 1.4441 151.8 20.7 663'  15
2022 08 20 21  23 30 01.745   -31 03 25.29  .47084 1.4441 151.8 20.7 671'  15
2022 08 20 22  23 30 02.305   -31 03 35.84  .47089 1.4442 151.9 20.7 678'  15
2022 08 20 23  23 30 02.860   -31 03 46.34  .47094 1.4443 151.9 20.7 686'  14
2022 08 21 00  23 30 03.411   -31 03 56.80  .47099 1.4444 151.9 20.7 694'  14
2022 08 21 01  23 30 03.958   -31 04 07.22  .47104 1.4444 151.9 20.7 701'  14
2022 08 21 02  23 30 04.500   -31 04 17.60  .47110 1.4445 151.9 20.7 709'  14
2022 08 21 03  23 30 05.038   -31 04 27.94  .47115 1.4446 151.9 20.7 717'  13
2022 08 21 04  23 30 05.571   -31 04 38.23  .47120 1.4447 151.9 20.7 725'  13
2022 08 21 05  23 30 06.100   -31 04 48.48  .47125 1.4447 152.0 20.7 733'  13
2022 08 21 06  23 30 06.625   -31 04 58.68  .47130 1.4448 152.0 20.7 741'  13
2022 08 21 07  23 30 07.145   -31 05 08.84  .47136 1.4449 152.0 20.7 749'  12
2022 08 21 08  23 30 07.661   -31 05 18.96  .47141 1.4450 152.0 20.7 757'  12
2022 08 21 09  23 30 08.173   -31 05 29.04  .47146 1.4450 152.0 20.7 765'  12
2022 08 21 10  23 30 08.680   -31 05 39.07  .47151 1.4451 152.0 20.7 773'  12
2022 08 21 11  23 30 09.183   -31 05 49.06  .47157 1.4452 152.0 20.7 782'  11
2022 08 21 12  23 30 09.681   -31 05 59.01  .47162 1.4453 152.0 20.7 790'  11
2022 08 21 13  23 30 10.176   -31 06 08.91  .47168 1.4454 152.1 20.7 798'  11
2022 08 21 14  23 30 10.665   -31 06 18.77  .47173 1.4454 152.1 20.7 806'  11
2022 08 21 15  23 30 11.151   -31 06 28.59  .47178 1.4455 152.1 20.7 815'  10
2022 08 21 16  23 30 11.632   -31 06 38.36  .47184 1.4456 152.1 20.7 823'  10
2022 08 21 17  23 30 12.109   -31 06 48.09  .47189 1.4457 152.1 20.7 831'  10
2022 08 21 18  23 30 12.582   -31 06 57.77  .47195 1.4457 152.1 20.7 840'  10
2022 08 21 19  23 30 13.051   -31 07 07.41  .47200 1.4458 152.1 20.7 848'   9
2022 08 21 20  23 30 13.515   -31 07 17.01  .47206 1.4459 152.1 20.7 857'   9
2022 08 21 21  23 30 13.975   -31 07 26.56  .47211 1.4460 152.2 20.7 865'   9
2022 08 21 22  23 30 14.430   -31 07 36.07  .47217 1.4461 152.2 20.7 874'   8
2022 08 21 23  23 30 14.882   -31 07 45.54  .47222 1.4461 152.2 20.7 882'   8
2022 08 22 00  23 30 15.329   -31 07 54.96  .47228 1.4462 152.2 20.7 891'   8
2022 08 22 01  23 30 15.772   -31 08 04.34  .47234 1.4463 152.2 20.7 899'   8
2022 08 22 02  23 30 16.210   -31 08 13.67  .47239 1.4464 152.2 20.7 908'   7
2022 08 22 03  23 30 16.645   -31 08 22.96  .47245 1.4465 152.2 20.7 916'   7
2022 08 22 04  23 30 17.075   -31 08 32.20  .47251 1.4465 152.2 20.7 925'   7
2022 08 22 05  23 30 17.501   -31 08 41.41  .47256 1.4466 152.3 20.7 933'   7
2022 08 22 06  23 30 17.923   -31 08 50.56  .47262 1.4467 152.3 20.7 941'   6
2022 08 22 07  23 30 18.340   -31 08 59.67  .47268 1.4468 152.3 20.7 950'   6
2022 08 22 08  23 30 18.754   -31 09 08.74  .47274 1.4469 152.3 20.7 958'   6
2022 08 22 09  23 30 19.163   -31 09 17.76  .47280 1.4469 152.3 20.7 967'   6
2022 08 22 10  23 30 19.568   -31 09 26.74  .47285 1.4470 152.3 20.7 975'   5